Starlink 5317

operational
NORAD ID: 55283 Int'l Des: 2023-010 Owner: SPXS Country: US Constellation: starlink
LEOCIRCULAR

关于 Starlink 5317

正在加载描述...

实时位置

正在加载3D地球...

即将过境

高度历史

Altitude vs Time

uPlot chart will show altitude changes over time

两行轨道根数

1 55283U 23010Q 25350.15053755 .00005185 00000-0 44207-3 0 9994
2 55283 69.9982 255.0397 0002990 267.3825 92.6992 14.98321957160263
Epoch: Dec 16, 2025 • Age: 21 hours

当前状态

高度 583.3 km
速度 7.57 km/s
星下点 59.10°N, 64.58°W
发射日期 Jan 19, 2023
运行时间 2.9 years
类型 internet

技术详情

分类 Payload
质量 305.00 kg
干质量 290.00 kg
总质量 305.00 kg
长度 0.20 m
直径 2.80 m
跨度 9.00 m
形状 Box + pan
制造商 SPXS
平台类型 Starlink
阶段状态 In Orbit
所有者/国家 SPXS/US

大型星座

Loading constellations...